Precipitable_Water
0.98 0.97 1.02 1.06 1.11 1.09 1.06 1.04 1.04 1.02 1.03 1.02 1.01 1.02 1.04 1.03 1.02 1.01 1.02 1.03 1.03 1.06 1.06 1.03 1.02 1.03 1.04 1.05 1.06 1.06 1.07 1.05 1.03 0.98 0.97 1.03 0.97 1.03 1.14 1.12 1.12 1.13 1.14 1.10 1.06 0.95 0.90 0.85 0.94 1.13 1.20 1.21 1.22 1.21 1.25 1.26 1.26 1.24 1.20 1.14 1.08 1.05 1.04
1.05 1.01 1.04 1.06 1.03 1.03 0.97 0.99 0.98 0.97 0.97 0.97 0.97 0.97 0.98 0.97 0.99 0.99 0.98 0.98 0.99 1.01 1.04 1.06 1.06 1.07 1.05 1.03 1.02 1.02 1.02 1.03 1.04 1.05 1.03 1.02 1.05 1.05 1.07 1.08 1.10 1.07 1.08 1.09 1.10 1.08 0.94 0.86 0.88 0.93 0.96 1.11 1.13 1.15 1.16 1.18 1.17 1.15 1.10 1.05 1.00 0.96 0.94
1.02 1.01 1.02 0.98 0.96 0.97 0.94 0.95 0.97 0.95 0.94 0.94 0.95 0.96 0.95 0.95 0.96 0.97 0.95 0.94 0.97 0.99 1.01 1.03 1.06 1.06 1.07 1.07 1.06 1.05 1.06 1.04 1.07 1.06 1.04 1.06 1.08 1.11 1.12 1.10 1.04 1.03 1.01 1.01 1.02 1.03 1.02 0.97 0.85 0.89 0.94 0.89 0.84 0.96 1.05 1.05 1.04 1.02 0.99 0.95 0.90 0.86 0.84
0.98 0.97 0.94 0.91 0.91 0.94 0.92 0.93 0.93 0.91 0.93 0.94 0.97 0.98 0.98 0.97 0.97 0.96 0.94 0.93 0.96 0.98 0.99 0.99 1.02 1.07 1.09 1.09 1.10 1.10 1.09 1.06 1.07 1.08 1.08 1.08 1.09 1.09 1.11 1.10 1.06 1.02 1.01 0.98 0.95 0.98 0.96 0.91 0.89 0.90 0.92 0.92 0.86 0.83 0.91 0.93 0.91 0.90 0.89 0.89 0.84 0.81 0.76
0.97 0.94 0.91 0.85 0.90 0.91 0.91 0.90 0.93 0.93 0.93 0.96 0.98 0.97 0.95 0.95 0.94 0.93 0.93 0.93 0.92 0.93 0.93 0.95 0.98 1.06 1.10 1.10 1.10 1.07 1.08 1.12 1.11 1.15 1.10 1.07 1.06 1.06 1.08 1.10 1.08 1.08 1.10 1.08 1.08 1.05 0.98 0.96 0.92 0.88 0.88 0.90 0.87 0.85 0.85 0.84 0.83 0.81 0.79 0.76 0.75 0.69 0.60
0.97 0.96 0.92 0.90 0.93 0.91 0.91 0.90 0.92 0.92 0.94 0.92 0.94 0.90 0.87 0.87 0.87 0.84 0.86 0.87 0.88 0.91 0.94 0.94 0.95 0.99 1.03 1.07 1.09 1.09 1.10 1.08 1.07 1.09 1.08 1.08 1.07 1.03 1.04 1.10 1.10 1.08 1.08 1.16 1.14 1.07 1.07 1.05 0.98 0.88 0.91 0.93 0.82 0.80 0.79 0.75 0.69 0.70 0.70 0.69 0.65 0.56 0.48
0.98 0.95 0.94 0.94 0.94 0.93 0.94 0.93 0.94 0.94 0.92 0.92 0.91 0.88 0.86 0.86 0.85 0.83 0.87 0.88 0.90 0.92 0.94 0.92 0.92 0.92 0.95 0.99 1.06 1.08 1.09 1.10 1.10 1.09 1.10 1.10 1.10 1.09 1.10 1.07 1.07 1.07 1.07 1.11 1.09 1.08 1.04 1.00 0.95 0.90 0.88 0.90 0.87 0.79 0.78 0.73 0.68 0.61 0.62 0.64 0.57 0.49 0.44
0.97 0.97 0.97 0.97 0.96 0.95 0.97 0.97 0.97 0.97 0.94 0.95 0.95 0.92 0.90 0.88 0.85 0.83 0.87 0.89 0.89 0.90 0.91 0.90 0.90 0.90 0.92 0.97 1.01 1.06 1.08 1.09 1.07 1.09 1.07 1.06 1.04 1.05 1.07 1.08 1.09 1.07 1.08 1.09 1.08 1.06 1.08 1.04 0.99 0.95 0.90 0.80 0.81 0.81 0.75 0.73 0.67 0.69 0.59 0.56 0.51 0.44 0.41
0.99 0.99 0.99 0.99 1.00 1.02 1.00 0.99 0.98 0.98 0.97 0.98 0.99 0.94 0.89 0.88 0.85 0.84 0.85 0.86 0.87 0.87 0.88 0.88 0.86 0.85 0.90 0.97 0.98 1.00 0.99 1.04 1.03 1.00 1.00 0.98 0.98 1.01 1.04 1.09 1.07 1.07 1.12 1.08 1.07 1.08 1.07 1.07 1.04 1.00 0.94 0.87 0.78 0.73 0.75 0.67 0.66 0.62 0.57 0.46 0.45 0.43 0.36
1.01 0.97 0.97 0.98 1.01 1.05 1.04 1.03 1.01 1.00 0.99 0.99 0.98 0.95 0.88 0.87 0.88 0.86 0.83 0.84 0.85 0.86 0.86 0.86 0.83 0.84 0.86 0.93 0.95 0.94 0.92 0.95 0.94 0.91 0.90 0.89 0.92 0.97 1.01 1.04 1.05 1.06 1.06 1.07 1.06 1.07 1.07 1.06 1.04 1.02 0.99 0.91 0.83 0.69 0.61 0.59 0.56 0.52 0.47 0.45 0.34 0.35 0.38
1.04 1.01 1.00 0.98 1.02 1.02 1.03 1.04 1.03 0.99 0.98 1.01 1.00 0.95 0.90 0.86 0.85 0.85 0.83 0.82 0.83 0.85 0.85 0.83 0.81 0.81 0.82 0.85 0.89 0.88 0.87 0.87 0.85 0.87 0.88 0.88 0.89 0.92 0.95 0.98 1.00 1.01 1.06 1.02 1.02 1.04 1.04 1.04 1.04 1.03 1.00 0.95 0.79 0.69 0.60 0.50 0.46 0.48 0.42 0.42 0.43 0.35 0.41
1.06 1.02 1.01 1.01 1.02 1.02 1.01 1.03 1.03 1.03 1.02 1.01 1.00 0.95 0.89 0.84 0.82 0.82 0.82 0.79 0.81 0.83 0.82 0.79 0.77 0.78 0.80 0.79 0.81 0.80 0.82 0.84 0.84 0.85 0.88 0.89 0.90 0.92 0.91 0.92 0.97 0.97 1.01 1.01 1.00 1.00 1.02 1.06 1.03 1.01 0.95 0.87 0.76 0.72 0.61 0.50 0.36 0.41 0.48 0.41 0.44 0.48 0.42
1.04 1.02 1.03 1.02 1.01 0.99 1.01 1.03 1.04 1.04 1.02 1.02 1.00 0.96 0.89 0.83 0.82 0.79 0.76 0.75 0.77 0.80 0.76 0.72 0.69 0.75 0.78 0.77 0.76 0.75 0.75 0.76 0.78 0.82 0.86 0.90 0.91 0.93 0.93 0.94 0.97 0.98 1.01 1.00 0.99 0.99 1.04 1.04 0.99 0.94 0.89 0.82 0.71 0.67 0.61 0.46 0.38 0.36 0.47 0.48 0.46 0.48 0.51
1.04 1.06 1.06 1.05 1.00 0.99 1.02 1.04 1.05 1.06 1.05 1.02 1.01 0.95 0.89 0.83 0.81 0.78 0.72 0.70 0.72 0.73 0.69 0.63 0.62 0.69 0.72 0.70 0.68 0.68 0.68 0.68 0.69 0.73 0.78 0.82 0.88 0.91 0.93 0.95 1.00 1.04 1.07 1.02 1.03 0.99 1.01 0.97 0.94 0.90 0.85 0.78 0.67 0.63 0.55 0.45 0.43 0.41 0.46 0.53 0.52 0.51 0.54
1.08 1.09 1.09 1.04 0.97 0.98 1.01 1.01 1.02 1.01 1.00 1.02 1.00 0.94 0.87 0.83 0.80 0.76 0.69 0.65 0.70 0.70 0.64 0.60 0.58 0.62 0.66 0.67 0.68 0.70 0.70 0.67 0.67 0.69 0.73 0.75 0.80 0.85 0.91 0.95 0.99 1.05 1.08 1.04 1.01 0.96 0.97 0.89 0.86 0.83 0.79 0.74 0.64 0.56 0.54 0.45 0.44 0.42 0.41 0.49 0.51 0.55 0.56
1.11 1.13 1.10 1.02 0.96 0.98 1.00 0.99 0.99 0.98 0.99 0.99 0.97 0.91 0.84 0.82 0.79 0.74 0.67 0.65 0.67 0.65 0.62 0.57 0.56 0.59 0.61 0.63 0.63 0.67 0.70 0.68 0.65 0.64 0.67 0.70 0.72 0.77 0.81 0.90 0.96 1.03 1.05 1.01 0.97 0.94 0.92 0.84 0.82 0.77 0.71 0.68 0.62 0.58 0.54 0.51 0.47 0.45 0.46 0.47 0.55 0.53 0.56
1.09 1.12 1.07 1.02 0.98 0.99 0.99 0.98 0.99 0.99 0.99 0.98 0.90 0.86 0.84 0.81 0.76 0.70 0.65 0.63 0.63 0.62 0.60 0.55 0.53 0.57 0.59 0.60 0.61 0.62 0.66 0.67 0.64 0.62 0.62 0.64 0.66 0.69 0.73 0.82 0.91 0.98 0.99 0.95 0.91 0.91 0.85 0.82 0.77 0.70 0.64 0.63 0.62 0.60 0.60 0.58 0.57 0.54 0.52 0.50 0.53 0.53 0.58
1.10 1.10 1.07 1.05 1.01 1.01 1.01 1.00 1.00 0.98 0.95 0.90 0.86 0.82 0.79 0.76 0.70 0.66 0.63 0.62 0.61 0.60 0.58 0.54 0.51 0.53 0.58 0.61 0.61 0.61 0.62 0.65 0.64 0.63 0.62 0.63 0.65 0.67 0.69 0.77 0.88 0.95 0.96 0.90 0.83 0.79 0.77 0.75 0.71 0.64 0.61 0.62 0.63 0.64 0.65 0.63 0.61 0.60 0.57 0.53 0.53 0.56 0.60
1.11 1.09 1.07 1.07 1.05 1.03 1.03 1.01 1.00 0.97 0.92 0.86 0.84 0.82 0.78 0.76 0.72 0.65 0.61 0.59 0.58 0.57 0.55 0.54 0.51 0.51 0.55 0.59 0.60 0.59 0.60 0.63 0.65 0.63 0.63 0.64 0.64 0.67 0.68 0.73 0.84 0.91 0.89 0.83 0.76 0.75 0.74 0.73 0.72 0.69 0.67 0.68 0.68 0.69 0.68 0.68 0.67 0.65 0.63 0.61 0.61 0.57 0.60
1.13 1.10 1.10 1.09 1.08 1.07 1.05 1.02 0.99 0.94 0.94 0.90 0.87 0.84 0.83 0.81 0.78 0.70 0.62 0.57 0.54 0.54 0.54 0.53 0.52 0.52 0.53 0.55 0.56 0.57 0.56 0.57 0.61 0.64 0.62 0.61 0.61 0.62 0.65 0.67 0.74 0.82 0.86 0.85 0.80 0.75 0.73 0.73 0.74 0.75 0.75 0.74 0.72 0.68 0.67 0.67 0.67 0.68 0.68 0.68 0.67 0.63 0.60
1.12 1.11 1.14 1.15 1.11 1.09 1.06 1.03 0.99 0.97 0.97 0.94 0.91 0.89 0.86 0.85 0.82 0.76 0.68 0.62 0.59 0.58 0.56 0.52 0.51 0.52 0.53 0.54 0.54 0.55 0.55 0.52 0.53 0.58 0.60 0.60 0.59 0.57 0.60 0.64 0.67 0.70 0.73 0.77 0.80 0.79 0.78 0.74 0.74 0.73 0.74 0.72 0.71 0.69 0.68 0.68 0.67 0.67 0.67 0.67 0.66 0.64 0.65
1.16 1.16 1.20 1.16 1.12 1.09 1.09 1.07 1.04 1.00 0.98 0.98 0.97 0.96 0.93 0.90 0.85 0.79 0.74 0.67 0.64 0.65 0.64 0.62 0.61 0.60 0.57 0.54 0.55 0.53 0.53 0.52 0.50 0.51 0.54 0.57 0.57 0.55 0.56 0.62 0.66 0.67 0.69 0.70 0.69 0.70 0.70 0.70 0.68 0.65 0.67 0.69 0.69 0.69 0.68 0.67 0.66 0.66 0.66 0.66 0.66 0.68 0.65
1.16 1.19 1.18 1.16 1.13 1.16 1.15 1.14 1.10 1.05 1.03 1.02 1.01 1.02 0.98 0.94 0.87 0.80 0.75 0.70 0.68 0.67 0.66 0.66 0.63 0.62 0.60 0.60 0.59 0.56 0.56 0.56 0.54 0.53 0.53 0.55 0.57 0.59 0.59 0.60 0.64 0.65 0.66 0.66 0.66 0.67 0.67 0.68 0.68 0.68 0.70 0.68 0.67 0.66 0.65 0.64 0.63 0.64 0.63 0.61 0.61 0.62 0.59
1.18 1.17 1.18 1.18 1.18 1.14 1.14 1.15 1.10 1.10 1.11 1.10 1.06 1.05 1.03 0.97 0.90 0.85 0.80 0.76 0.72 0.71 0.70 0.69 0.67 0.65 0.64 0.63 0.61 0.59 0.59 0.59 0.59 0.59 0.60 0.62 0.62 0.62 0.63 0.64 0.65 0.65 0.65 0.66 0.67 0.66 0.67 0.67 0.67 0.68 0.68 0.69 0.69 0.67 0.64 0.63 0.63 0.63 0.61 0.59 0.60 0.59 0.57
1.13 1.16 1.18 1.17 1.16 1.16 1.11 1.12 1.11 1.11 1.09 1.06 1.06 1.05 1.00 0.97 0.93 0.90 0.86 0.83 0.79 0.77 0.75 0.74 0.73 0.70 0.68 0.65 0.64 0.64 0.62 0.60 0.62 0.63 0.64 0.64 0.64 0.65 0.65 0.66 0.68 0.68 0.68 0.68 0.69 0.67 0.67 0.67 0.67 0.68 0.69 0.69 0.69 0.70 0.70 0.68 0.67 0.65 0.62 0.59 0.59 0.58 0.58
1.08 1.06 1.07 1.06 1.07 1.07 1.07 1.06 1.06 1.05 1.03 1.04 1.04 1.00 0.98 0.95 0.93 0.92 0.89 0.84 0.82 0.81 0.79 0.78 0.77 0.76 0.74 0.72 0.68 0.66 0.65 0.65 0.63 0.63 0.63 0.64 0.65 0.66 0.66 0.65 0.66 0.68 0.69 0.69 0.68 0.70 0.70 0.68 0.68 0.68 0.68 0.68 0.68 0.68 0.68 0.69 0.69 0.68 0.67 0.61 0.59 0.59 0.59
1.06 1.06 1.05 1.04 1.03 1.03 1.03 1.02 1.02 1.01 1.01 1.01 1.00 0.98 0.97 0.93 0.91 0.91 0.92 0.90 0.86 0.84 0.83 0.83 0.81 0.79 0.77 0.76 0.76 0.75 0.73 0.70 0.68 0.67 0.67 0.67 0.67 0.67 0.67 0.66 0.66 0.66 0.69 0.70 0.71 0.72 0.71 0.71 0.71 0.70 0.69 0.69 0.69 0.69 0.69 0.69 0.68 0.68 0.67 0.65 0.64 0.61 0.65
0.98 0.99 1.01 1.01 1.01 1.01 1.00 0.98 0.97 0.97 0.98 0.98 0.97 0.96 0.94 0.91 0.90 0.90 0.91 0.92 0.90 0.88 0.85 0.85 0.85 0.84 0.83 0.81 0.80 0.80 0.81 0.80 0.79 0.78 0.77 0.76 0.75 0.74 0.74 0.73 0.71 0.70 0.71 0.72 0.73 0.73 0.73 0.72 0.71 0.70 0.70 0.69 0.71 0.72 0.73 0.73 0.73 0.74 0.73 0.72 0.71 0.71 0.72
0.91 0.93 0.93 0.93 0.93 0.94 0.95 0.96 0.94 0.94 0.94 0.94 0.95 0.94 0.93 0.91 0.90 0.88 0.88 0.89 0.89 0.89 0.89 0.89 0.88 0.86 0.85 0.85 0.86 0.86 0.83 0.81 0.80 0.82 0.83 0.85 0.86 0.86 0.85 0.82 0.79 0.77 0.76 0.77 0.77 0.77 0.76 0.76 0.73 0.70 0.69 0.70 0.71 0.73 0.74 0.77 0.78 0.79 0.80 0.81 0.81 0.82 0.83
0.86 0.87 0.89 0.90 0.90 0.89 0.89 0.89 0.88 0.89 0.88 0.88 0.89 0.90 0.91 0.90 0.89 0.88 0.87 0.87 0.86 0.86 0.86 0.86 0.86 0.85 0.84 0.84 0.84 0.85 0.85 0.85 0.84 0.82 0.82 0.83 0.84 0.85 0.86 0.87 0.86 0.84 0.83 0.82 0.84 0.82 0.80 0.78 0.75 0.72 0.71 0.70 0.71 0.71 0.71 0.75 0.75 0.76 0.77 0.79 0.81 0.83 0.85
0.82 0.82 0.83 0.84 0.84 0.84 0.84 0.84 0.83 0.83 0.81 0.81 0.81 0.83 0.85 0.84 0.85 0.85 0.84 0.82 0.81 0.80 0.80 0.80 0.79 0.79 0.79 0.79 0.80 0.80 0.80 0.78 0.78 0.80 0.82 0.84 0.84 0.84 0.84 0.83 0.84 0.85 0.85 0.87 0.89 0.88 0.87 0.85 0.81 0.80 0.78 0.76 0.75 0.73 0.75 0.79 0.78 0.80 0.82 0.82 0.83 0.83 0.84
0.77 0.75 0.75 0.75 0.76 0.75 0.77 0.77 0.78 0.78 0.77 0.77 0.76 0.77 0.77 0.76 0.77 0.78 0.78 0.77 0.76 0.76 0.76 0.76 0.75 0.74 0.73 0.73 0.73 0.74 0.73 0.72 0.70 0.71 0.72 0.73 0.77 0.78 0.81 0.82 0.82 0.84 0.86 0.89 0.91 0.92 0.92 0.91 0.89 0.88 0.86 0.83 0.79 0.78 0.81 0.86 0.83 0.82 0.83 0.85 0.85 0.85 0.83
0.73 0.74 0.73 0.74 0.74 0.74 0.73 0.71 0.70 0.70 0.69 0.68 0.68 0.67 0.67 0.67 0.66 0.67 0.68 0.68 0.67 0.67 0.65 0.66 0.65 0.65 0.64 0.63 0.62 0.63 0.64 0.61 0.60 0.61 0.63 0.62 0.62 0.66 0.69 0.71 0.75 0.75 0.76 0.77 0.80 0.83 0.85 0.87 0.86 0.87 0.87 0.83 0.79 0.77 0.87 0.89 0.88 0.87 0.85 0.84 0.83 0.82 0.81
0.73 0.71 0.70 0.73 0.73 0.73 0.73 0.72 0.71 0.69 0.67 0.67 0.65 0.64 0.63 0.62 0.61 0.61 0.62 0.62 0.62 0.62 0.62 0.61 0.61 0.60 0.60 0.60 0.60 0.59 0.58 0.56 0.56 0.55 0.55 0.55 0.56 0.55 0.56 0.58 0.61 0.64 0.66 0.69 0.72 0.75 0.78 0.81 0.84 0.85 0.85 0.80 0.79 0.83 0.85 0.81 0.80 0.81 0.80 0.80 0.78 0.78 0.78
0.77 0.76 0.76 0.74 0.72 0.71 0.72 0.71 0.70 0.68 0.67 0.66 0.64 0.62 0.62 0.61 0.61 0.60 0.61 0.61 0.61 0.60 0.60 0.59 0.59 0.59 0.58 0.59 0.59 0.59 0.58 0.58 0.57 0.56 0.55 0.55 0.56 0.56 0.58 0.60 0.61 0.61 0.61 0.62 0.65 0.69 0.73 0.76 0.80 0.83 0.85 0.88 0.89 0.88 0.87 0.88 0.86 0.83 0.82 0.80 0.78 0.76 0.75
0.73 0.74 0.72 0.71 0.69 0.67 0.68 0.67 0.67 0.67 0.65 0.65 0.64 0.63 0.63 0.62 0.61 0.60 0.60 0.61 0.61 0.61 0.62 0.62 0.60 0.60 0.59 0.59 0.59 0.60 0.60 0.59 0.59 0.60 0.58 0.57 0.58 0.60 0.63 0.64 0.65 0.65 0.63 0.61 0.60 0.62 0.65 0.70 0.74 0.78 0.84 0.88 0.89 0.89 0.88 0.86 0.84 0.81 0.79 0.77 0.74 0.71 0.70
0.68 0.68 0.67 0.67 0.66 0.65 0.64 0.64 0.63 0.62 0.62 0.61 0.59 0.59 0.59 0.59 0.59 0.58 0.57 0.57 0.57 0.58 0.58 0.58 0.57 0.56 0.56 0.55 0.55 0.55 0.55 0.55 0.55 0.54 0.54 0.52 0.53 0.54 0.55 0.57 0.58 0.58 0.59 0.60 0.61 0.61 0.62 0.63 0.66 0.70 0.75 0.80 0.85 0.87 0.86 0.83 0.80 0.76 0.73 0.69 0.65 0.63 0.61
Wind_Speed
16 15 14 13 12 11 11 10 10 9 8 8 7 7 7 7 7 7 6 6 7 7 7 7 7 7 8 8 8 9 8 8 8 8 8 8 8 8 7 7 5 5 5 5 5 5 4 4 3 3 2 2 3 3 3 3 3 3 2 2 2 2 2
16 15 14 13 12 12 11 10 10 9 8 7 7 7 7 8 8 7 7 7 7 7 7 7 7 8 8 8 9 9 9 9 9 8 8 9 9 8 8 8 7 6 6 6 6 6 5 5 4 4 3 3 3 3 3 3 3 3 2 2 2 2 3
17 16 15 14 13 12 11 11 10 9 8 7 7 7 8 8 8 8 8 7 7 7 7 7 7 8 8 8 9 9 9 9 9 9 9 9 9 9 9 9 8 8 7 7 7 7 6 6 5 5 5 5 4 4 4 3 3 3 3 3 3 3 4
18 17 15 15 14 13 12 11 10 9 8 7 7 8 8 8 9 9 8 8 8 7 7 7 7 8 8 8 9 9 9 9 9 9 9 9 9 10 10 10 9 9 9 8 8 8 7 6 6 6 6 5 5 5 5 4 4 4 4 4 4 4 5
18 17 16 15 14 13 12 11 10 9 8 8 8 8 8 8 8 9 9 8 8 8 7 7 7 7 8 8 9 9 9 10 10 10 10 10 10 10 10 10 10 9 9 9 8 8 8 7 7 7 6 6 5 5 5 5 5 5 5 5 5 5 6
18 17 16 15 14 13 12 11 10 9 9 8 8 8 8 8 8 8 9 8 8 8 7 7 7 7 7 8 8 9 9 9 10 10 10 9 10 10 10 10 10 9 9 9 8 8 8 7 7 7 6 6 5 5 5 5 5 5 6 6 6 6 6
17 16 16 15 14 13 12 11 10 9 9 8 8 7 7 7 8 8 8 8 7 7 7 7 7 7 7 7 8 8 9 9 9 9 9 9 9 9 9 9 9 9 9 8 8 8 7 7 7 7 6 6 5 6 6 6 6 6 6 6 6 6 6
17 16 15 15 14 13 12 11 10 9 9 8 7 7 7 7 7 7 7 7 7 7 7 7 6 6 6 7 7 8 8 8 8 8 8 8 8 8 9 9 9 9 9 8 8 8 8 8 8 8 8 7 6 6 6 6 6 6 6 6 6 6 6
17 16 15 15 14 13 12 11 10 9 8 8 7 6 6 7 7 7 7 7 7 7 6 6 6 6 6 6 7 7 8 8 8 8 8 8 8 8 8 8 9 9 9 8 8 8 8 8 8 8 8 7 6 6 6 6 6 6 6 6 6 6 6
17 16 16 15 14 13 12 11 10 9 8 8 7 6 6 6 7 7 7 7 7 7 7 6 6 6 6 6 7 7 7 7 8 8 8 8 8 8 8 9 9 9 9 9 9 8 8 8 8 8 8 7 6 6 7 7 7 6 7 7 6 6 6
17 16 16 15 14 12 12 11 10 10 9 8 7 6 6 6 6 7 7 7 7 7 7 6 6 6 6 7 7 7 7 7 7 7 7 8 8 8 9 9 9 9 9 9 9 9 8 8 8 8 8 7 6 7 7 7 7 7 7 7 6 6 7
17 17 16 15 14 13 12 11 11 10 9 8 7 7 6 6 6 7 7 7 8 7 7 7 7 6 6 7 7 7 7 7 7 7 7 7 7 7 8 8 9 9 10 9 9 9 9 9 9 8 8 7 6 7 8 7 7 7 7 7 7 6 7
18 17 16 15 14 13 13 12 11 10 9 9 8 8 7 7 7 7 8 8 8 8 7 7 7 7 6 7 7 7 7 7 7 7 7 7 7 7 7 8 9 9 10 10 9 9 9 9 9 9 8 8 7 7 8 7 6 6 7 7 7 7 7
18 17 17 16 15 14 13 12 11 10 10 9 9 9 8 8 8 8 8 8 8 8 7 7 7 7 7 7 7 7 7 7 7 7 7 7 7 7 7 7 8 9 9 9 9 9 9 9 9 9 9 8 7 7 7 7 6 6 7 7 7 8 8
18 18 17 16 15 14 13 12 11 10 10 9 9 9 9 8 8 8 8 8 9 8 8 7 7 7 7 7 8 8 8 8 7 8 8 8 8 7 7 8 8 9 9 10 9 9 9 9 9 9 9 9 8 8 7 7 6 6 7 7 8 8 9
18 18 17 16 16 15 13 12 11 10 9 9 9 8 8 8 8 8 8 9 9 9 8 8 8 8 8 8 8 8 8 8 8 8 8 8 8 8 8 8 8 9 9 10 10 9 9 9 9 9 10 10 9 9 8 8 7 7 7 8 8 9 9
18 17 17 16 15 14 13 12 11 10 10 9 8 8 8 8 8 8 8 9 9 9 9 9 9 9 9 9 9 9 9 9 8 8 8 8 8 8 8 8 9 9 10 10 10 10 10 10 10 10 10 10 10 9 9 9 8 8 8 8 9 9 10
18 17 16 16 15 14 13 12 12 11 11 10 9 9 8 8 8 8 9 9 9 9 9 9 9 10 10 10 9 9 9 9 9 9 9 9 8 8 7 8 9 10 10 10 10 11 11 11 10 10 10 10 10 10 10 10 10 10 10 10 10 10 10
17 16 16 15 15 14 13 13 12 12 11 11 10 9 9 9 8 8 9 9 10 10 10 10 10 10 10 10 10 10 10 10 10 10 10 9 9 9 8 8 9 10 11 11 11 11 11 11 11 11 11 11 11 11 11 12 12 12 12 12 12 12 12
17 16 15 15 15 14 14 13 12 12 12 11 11 10 9 9 8 8 8 8 9 9 10 10 10 10 10 11 11 11 11 11 11 11 11 11 10 10 10 9 10 11 11 12 12 11 11 11 11 12 12 12 12 13 13 14 14 14 14 14 14 14 14
17 16 16 15 15 15 14 13 12 12 12 12 12 11 11 10 9 8 8 8 9 9 9 10 10 10 11 11 11 11 11 11 11 11 12 11 11 11 11 11 11 11 12 12 12 12 12 12 12 13 13 13 14 14 14 15 15 15 16 16 16 16 16
16 16 15 15 15 14 14 13 13 12 12 12 13 13 13 12 11 10 10 10 10 10 10 10 10 10 11 11 11 11 11 11 11 12 12 12 12 12 12 12 13 12 12 12 12 13 13 13 13 14 14 14 14 15 15 15 15 16 16 17 17 17 17
16 15 15 15 14 14 14 14 14 14 14 15 15 15 15 14 12 11 11 10 10 11 10 10 11 11 11 12 12 12 12 11 11 12 12 12 12 13 13 13 13 14 14 14 14 14 15 15 16 16 16 16 16 16 16 16 16 16 16 17 17 17 18
16 15 15 15 15 15 15 16 16 16 16 15 14 14 14 14 12 11 11 10 10 11 11 11 11 11 12 12 12 12 12 12 12 13 13 13 13 14 14 14 14 15 15 15 15 16 17 17 18 18 18 18 18 17 17 17 17 17 17 18 18 18 19
15 15 15 16 16 15 15 15 14 14 13 12 12 12 12 12 11 11 11 10 10 11 11 11 11 11 12 12 13 13 13 13 14 14 15 15 15 15 15 16 16 16 17 17 17 18 19 19 20 20 20 20 20 20 20 20 20 19 20 20 20 20 21
13 13 13 13 13 13 12 11 11 11 11 11 11 11 12 11 11 11 11 11 11 11 12 12 12 12 13 13 14 15 15 15 16 16 17 17 17 17 17 18 18 19 19 19 20 20 21 21 22 22 22 22 22 22 22 22 22 22 23 23 23 23 23
11 11 11 11 11 11 11 10 10 11 11 11 11 11 11 11 12 12 12 12 12 12 13 14 14 14 14 15 15 16 16 17 17 18 18 19 19 19 19 19 20 21 21 21 22 22 23 23 23 24 24 24 24 24 24 24 24 24 25 25 25 25 25
10 10 10 10 10 10 10 10 10 10 11 11 11 11 12 12 12 12 13 13 13 13 14 15 15 15 16 17 17 18 18 18 19 19 20 20 21 21 21 21 22 22 23 23 24 24 24 25 25 25 25 25 25 25 25 26 26 26 26 26 27 27 27
9 10 10 10 10 10 10 10 11 11 11 11 11 12 12 13 13 13 14 14 14 15 15 16 16 17 18 19 19 19 20 20 20 20 21 22 22 23 23 23 24 25 25 26 26 26 26 27 27 27 28 28 28 28 28 28 28 28 28 29 29 29 29
9 9 10 10 10 10 10 11 11 11 12 12 12 13 13 14 15 15 15 16 16 16 16 17 18 18 19 20 21 21 21 21 22 22 23 23 24 24 25 26 26 27 28 28 27 28 29 29 29 30 30 30 30 31 31 30 30 30 31 31 31 32 32
9 9 9 10 10 10 10 11 11 12 12 12 13 14 14 15 16 16 17 17 17 17 18 18 19 20 20 21 22 22 22 23 23 24 24 25 26 26 27 27 28 29 29 29 29 30 31 31 31 32 32 32 32 33 33 33 33 33 33 33 33 33 34
9 9 9 9 10 11 11 11 12 13 13 13 14 15 16 16 17 17 18 18 19 19 20 20 21 21 22 22 23 24 24 24 25 26 26 27 28 28 28 29 30 30 31 31 32 32 33 33 33 34 34 34 35 35 35 35 35 35 35 35 35 35 35
10 10 10 10 11 11 12 12 13 14 14 15 15 16 17 18 18 19 19 20 21 22 22 23 23 24 24 25 26 26 26 27 28 29 29 30 30 31 31 32 32 32 33 34 34 34 35 35 36 36 36 36 37 37 37 37 37 37 37 38 37 37 37
11 11 12 13 13 13 14 14 15 16 16 17 17 18 18 19 20 21 22 22 23 24 24 25 26 26 27 27 28 29 29 30 31 32 32 33 34 34 34 35 35 35 36 36 37 37 37 38 38 38 39 39 39 39 39 39 39 39 39 39 39 39 39
12 12 13 14 14 15 16 17 18 18 18 19 19 20 21 22 23 23 24 25 25 26 27 27 28 28 29 29 30 31 31 32 33 34 34 35 36 36 37 38 38 38 39 39 40 40 40 41 41 41 42 42 42 42 42 42 42 41 41 41 41 41 41
13 13 14 15 16 17 18 19 20 20 21 21 22 23 23 24 25 26 26 27 28 28 29 30 30 31 32 32 33 34 34 35 36 36 37 37 38 38 39 40 40 40 41 42 42 43 43 43 44 44 44 45 45 45 45 45 44 44 43 43 43 43 42
15 16 17 18 19 20 21 21 22 23 23 24 25 25 26 27 27 28 29 29 30 31 32 32 33 34 34 35 36 36 37 38 38 39 40 40 40 41 41 42 42 43 44 44 44 45 45 45 46 46 46 47 47 46 46 46 46 45 45 45 44 44 43
Wind_Direction
199 199 198 197 198 199 200 203 206 209 213 218 221 223 227 229 230 231 233 236 238 239 240 241 242 241 239 236 232 230 229 228 229 229 227 226 229 230 230 235 241 234 229 232 231 226 222 221 229 237 231 211 207 214 219 223 226 228 236 242 249 264 272
199 198 198 198 199 200 201 203 207 211 216 220 223 226 229 232 233 234 235 238 241 243 243 244 245 243 240 237 233 231 231 231 232 232 231 230 232 233 231 233 234 234 239 238 230 230 227 219 224 227 215 207 210 220 227 225 224 230 238 247 257 270 282
199 199 199 199 200 200 202 204 207 212 217 222 226 228 231 234 236 236 237 238 240 242 245 248 248 245 241 237 236 234 234 234 234 233 234 234 233 234 234 235 236 238 241 237 229 226 226 226 225 219 215 217 217 223 231 230 230 237 248 259 269 281 289
198 199 199 199 200 201 202 205 208 213 220 227 229 230 233 237 239 238 238 238 239 240 245 249 249 246 242 239 238 236 234 235 235 235 237 238 237 236 236 236 239 239 239 240 235 228 226 226 219 215 220 225 223 227 232 236 241 245 252 261 271 282 287
198 200 200 199 200 201 203 206 210 215 224 231 232 234 238 240 242 240 239 239 238 239 244 249 250 247 243 241 240 237 234 234 236 236 237 239 238 237 236 235 236 237 237 240 240 235 232 226 216 215 220 224 226 229 232 237 244 249 253 260 268 276 280
200 200 200 200 201 203 205 209 213 218 224 230 234 238 240 240 242 240 238 239 237 237 242 248 249 249 246 243 240 238 235 234 234 235 237 238 237 236 236 234 233 231 231 235 239 237 233 228 220 215 218 226 228 226 232 238 243 250 255 260 266 271 274
200 201 201 201 202 204 208 211 215 219 223 229 235 241 241 239 240 239 236 234 233 235 240 245 247 248 247 244 240 237 235 233 232 233 234 234 233 233 232 231 230 228 228 231 233 230 227 226 222 216 216 225 230 230 236 241 244 252 257 259 263 264 267
202 203 204 204 205 207 210 213 216 219 223 229 236 241 240 238 238 235 231 229 230 234 239 243 246 248 246 242 237 234 232 231 230 230 231 230 229 229 228 226 225 225 225 227 228 226 226 226 223 221 218 220 226 233 239 242 245 252 253 253 258 259 259
204 205 206 207 208 209 212 215 217 219 222 228 236 241 240 237 234 230 227 228 230 235 240 244 246 247 245 240 235 232 230 229 228 228 230 230 229 227 226 223 221 222 224 226 227 227 228 228 226 226 224 222 228 234 238 242 245 249 248 249 255 256 253
204 205 206 207 209 211 215 218 219 220 222 227 234 241 240 236 232 229 227 230 234 239 244 247 246 246 244 240 235 231 229 228 227 228 229 229 228 227 225 223 223 224 225 227 230 229 228 228 229 229 227 230 240 239 236 240 242 245 245 247 253 251 245
204 204 205 207 210 213 216 218 219 220 221 223 229 237 239 235 232 232 233 235 240 243 247 249 248 245 242 239 235 231 229 227 226 227 227 227 227 227 227 226 227 228 227 230 232 231 229 228 229 231 230 236 251 249 241 241 242 244 244 244 249 246 239
204 205 207 210 213 215 216 217 218 219 219 221 227 234 239 239 238 240 241 241 242 243 246 249 248 244 240 237 234 231 228 226 226 227 225 225 227 229 230 229 229 230 229 230 232 230 228 228 230 233 234 240 256 257 248 243 240 241 242 241 244 243 239
205 206 209 212 214 215 215 216 218 220 221 224 230 237 243 244 243 245 246 245 242 240 243 247 247 243 239 237 234 230 228 227 229 228 226 227 230 233 233 230 229 229 227 227 228 226 225 228 232 235 237 244 257 258 248 242 237 235 237 239 241 242 240
205 207 210 212 213 213 213 216 220 224 225 229 234 238 243 246 246 246 246 245 242 239 240 244 243 241 238 236 233 230 229 229 230 229 228 230 232 234 235 232 229 227 223 222 222 222 224 229 233 236 238 244 253 251 242 239 237 231 234 240 244 245 243
207 208 209 210 211 211 213 217 221 225 227 231 235 237 240 244 247 247 246 244 241 238 240 241 239 237 236 235 233 231 231 231 232 232 231 232 233 234 236 234 230 226 223 221 219 221 225 228 232 235 238 242 247 245 239 239 240 236 239 245 248 250 248
208 209 209 209 208 209 213 216 220 224 228 232 236 237 239 243 247 247 245 243 240 239 241 242 239 236 235 235 234 233 233 232 232 233 233 234 236 238 238 236 232 228 223 220 219 222 225 227 232 236 238 241 244 243 240 241 244 246 249 251 254 255 254
208 208 207 207 207 209 213 216 220 225 228 232 234 236 239 243 246 246 244 242 240 241 243 243 241 237 235 236 236 235 234 233 233 233 235 237 239 242 242 238 233 227 222 220 221 225 226 227 232 236 238 241 242 242 242 244 249 254 255 255 256 257 256
207 206 205 205 207 210 214 219 223 226 230 232 232 234 237 241 246 247 245 243 242 242 243 243 242 239 237 238 238 237 236 236 235 235 236 239 242 244 243 238 232 226 223 224 224 226 227 228 232 236 239 241 243 244 246 248 252 256 257 256 255 257 257
206 205 205 207 210 214 218 221 225 228 231 232 231 232 235 240 245 247 246 244 241 241 242 243 243 242 239 240 240 240 240 239 238 238 239 241 244 244 243 240 234 228 227 226 226 227 228 230 233 237 239 243 245 247 249 251 254 257 259 259 258 259 260
209 210 212 213 215 218 220 222 225 227 230 232 231 232 235 240 245 246 245 243 240 239 240 241 243 243 242 242 242 243 243 242 241 241 241 242 244 245 245 242 237 232 229 228 228 229 230 233 237 240 243 247 249 251 253 254 256 259 261 263 263 263 265
212 215 216 216 216 218 220 223 225 227 230 233 234 236 239 242 245 246 245 242 240 239 240 242 244 245 245 244 244 246 246 245 243 242 242 243 245 246 246 243 240 237 233 231 231 233 236 240 244 247 249 251 253 255 256 257 259 261 263 265 266 267 269
213 216 217 216 217 219 221 224 226 227 230 235 241 243 243 243 244 244 243 242 242 243 245 247 248 249 248 247 247 249 249 247 244 243 243 244 246 246 245 244 242 240 237 236 237 239 242 246 249 252 254 255 256 258 259 261 262 264 265 266 267 269 270
216 218 217 217 220 222 225 228 232 236 240 244 248 246 241 241 241 240 240 242 245 247 248 249 250 250 251 251 251 251 250 249 246 244 243 245 246 246 245 244 242 240 240 242 244 247 249 251 253 255 256 257 258 259 260 261 263 265 266 268 269 269 270
219 222 223 224 228 232 236 238 241 243 244 243 244 240 234 233 236 238 239 242 246 249 249 250 252 252 253 253 253 252 251 250 248 246 246 248 250 248 246 245 243 241 243 246 249 251 253 255 257 257 257 257 259 260 261 262 263 265 266 268 270 271 271
223 227 229 231 234 238 239 238 237 236 234 232 232 231 229 229 232 237 239 241 246 248 248 250 254 255 256 257 255 254 253 252 252 252 252 254 254 251 249 247 246 245 247 250 253 256 257 258 259 260 260 260 260 262 263 264 265 266 267 268 270 271 272
219 221 223 225 227 228 228 227 226 226 226 225 226 228 230 230 233 237 239 243 248 250 250 254 256 257 258 260 259 258 256 255 256 256 256 257 256 255 252 251 250 250 251 255 258 260 261 261 262 262 262 262 262 263 264 265 266 267 268 269 270 271 273
210 212 215 218 220 221 221 222 223 224 225 225 226 230 234 236 237 238 241 246 251 254 255 258 258 258 259 261 262 261 260 259 258 258 258 259 259 258 256 255 254 254 255 258 261 262 263 263 263 263 263 263 263 264 264 265 266 267 268 269 270 272 273
209 212 214 216 219 220 220 222 224 225 227 228 230 234 238 240 240 242 246 250 253 255 257 258 259 260 262 264 264 263 262 262 261 260 259 260 260 259 259 258 257 258 259 262 263 263 264 264 264 263 263 263 264 265 266 267 267 268 269 270 271 272 273
211 211 213 216 218 219 220 223 227 229 231 233 236 238 241 243 244 247 251 254 255 255 257 259 261 263 266 267 266 265 264 264 263 262 261 261 261 261 260 260 260 261 262 264 264 264 264 265 265 264 264 265 266 267 267 268 268 269 270 271 272 273 274
211 212 213 215 217 219 221 225 231 234 236 239 241 242 244 246 248 251 254 256 257 257 258 261 263 265 267 268 267 265 265 265 265 264 263 262 262 262 262 262 262 263 264 265 265 265 265 266 266 265 265 266 267 267 268 268 268 269 269 270 271 272 273
212 214 215 216 218 222 227 231 236 239 241 244 246 247 248 250 252 254 256 257 258 259 260 263 265 266 267 268 267 265 265 266 266 266 266 265 265 264 264 263 264 265 266 266 267 266 265 266 266 266 266 267 267 268 268 268 268 269 269 270 271 272 272
217 220 223 224 227 231 235 239 242 245 248 250 251 252 253 254 255 257 258 259 261 263 264 265 267 267 268 268 267 266 266 266 266 267 267 267 266 266 266 266 266 266 267 268 268 267 266 266 267 267 267 267 268 268 269 269 269 269 270 270 271 272 272
229 231 235 237 240 242 245 249 252 254 255 256 257 258 258 258 259 260 261 263 265 267 267 267 268 269 269 270 270 269 268 268 268 268 268 267 267 267 267 267 267 267 267 268 269 268 267 267 267 268 268 268 268 269 269 269 269 269 270 270 271 272 272
242 243 243 245 247 250 253 258 260 262 263 263 263 263 263 263 264 265 267 268 269 270 270 270 270 270 270 270 271 270 270 270 270 270 269 269 269 268 268 268 268 268 268 269 269 268 268 267 267 268 268 268 269 270 270 270 270 270 270 271 271 271 272
250 250 250 250 251 254 257 261 263 265 266 266 267 267 268 268 269 270 270 271 271 272 272 271 272 272 272 272 272 271 271 271 271 271 271 270 269 269 269 269 269 269 270 270 270 269 268 267 267 268 268 268 269 270 270 270 270 270 271 271 271 271 272
252 252 253 255 257 260 262 264 265 267 268 269 269 270 270 271 271 271 271 272 272 273 273 273 273 273 274 273 273 273 273 273 273 272 272 271 271 270 270 270 270 271 271 271 270 270 269 268 268 268 269 269 270 270 270 270 270 271 271 271 271 271 271
255 256 258 261 263 266 267 268 269 270 271 272 272 272 272 272 272 272 272 273 273 274 275 275 275 275 275 274 274 273 273 273 273 273 273 272 272 272 272 272 272 272 272 271 271 270 270 270 269 269 269 269 270 269 269 269 270 270 270 270 270 270 270